EZY12KC EGAA-EGKK

Flight info

Callsign EZY12KC
Flight time 1h 10m
Altitude 33000
Route LISBO DCT RINGA DCT BABGU DCT ETIGA DCT INKOB Q39 NOMSU UQ4 WAL L151 DISIT
Aircraft A319/M-SDE3FGHIRWY/LB1

Departure

Time 2026-05-07 19:14
Airport Belfast International Airport (EGAA)

Arrival

Time 2026-05-07 20:25
Airport London Gatwick Airport (EGKK)
Time Latitude Longitude Altitude Speed Heading
2026-05-07 18:32 54.66180 -6.21416 275 ft 0 kts 245°
2026-05-07 19:04 54.66181 -6.21411 272 ft 3 kts 245°
2026-05-07 19:05 54.66190 -6.21379 275 ft 3 kts 245°
2026-05-07 19:05 54.66198 -6.21347 276 ft 3 kts 245°
2026-05-07 19:05 54.66204 -6.21326 275 ft 3 kts 245°
2026-05-07 19:05 54.66207 -6.21314 274 ft 0 kts 245°
2026-05-07 19:09 54.66205 -6.21317 272 ft 0 kts 233°
2026-05-07 19:09 54.66198 -6.21313 272 ft 2 kts 173°
2026-05-07 19:09 54.66182 -6.21306 272 ft 5 kts 162°
2026-05-07 19:09 54.66141 -6.21274 272 ft 7 kts 156°
2026-05-07 19:10 54.66092 -6.21235 276 ft 8 kts 155°
2026-05-07 19:10 54.66051 -6.21171 272 ft 9 kts 98°
2026-05-07 19:10 54.66070 -6.21070 275 ft 9 kts 62°
2026-05-07 19:10 54.66100 -6.20970 272 ft 10 kts 64°
2026-05-07 19:11 54.66129 -6.20859 275 ft 10 kts 65°
2026-05-07 19:11 54.66159 -6.20741 275 ft 11 kts 66°
2026-05-07 19:11 54.66194 -6.20619 274 ft 12 kts 64°
2026-05-07 19:11 54.66230 -6.20491 272 ft 12 kts 65°
2026-05-07 19:12 54.66265 -6.20353 273 ft 13 kts 66°
2026-05-07 19:12 54.66303 -6.20211 272 ft 13 kts 65°
2026-05-07 19:12 54.66343 -6.20063 272 ft 14 kts 65°
2026-05-07 19:12 54.66383 -6.19910 272 ft 14 kts 65°
2026-05-07 19:13 54.66385 -6.19755 272 ft 13 kts 118°
2026-05-07 19:13 54.66333 -6.19687 272 ft 9 kts 154°
2026-05-07 19:13 54.66276 -6.19656 272 ft 7 kts 196°
2026-05-07 19:13 54.66246 -6.19735 274 ft 10 kts 245°
2026-05-07 19:14 54.66147 -6.20100 274 ft 73 kts 245°
2026-05-07 19:14 54.65825 -6.21293 273 ft 143 kts 245°
2026-05-07 19:14 54.65360 -6.23014 714 ft 160 kts 241°
2026-05-07 19:14 54.64889 -6.24755 1540 ft 161 kts 244°
2026-05-07 19:15 54.64569 -6.26732 2025 ft 187 kts 269°
2026-05-07 19:15 54.65044 -6.29002 2438 ft 220 kts 301°
2026-05-07 19:15 54.66282 -6.30829 3006 ft 253 kts 332°
2026-05-07 19:15 54.68049 -6.31453 3918 ft 269 kts
2026-05-07 19:16 54.69848 -6.30457 4974 ft 280 kts 33°
2026-05-07 19:16 54.71121 -6.27909 5993 ft 286 kts 68°
2026-05-07 19:16 54.71427 -6.24554 6998 ft 285 kts 101°
2026-05-07 19:16 54.70684 -6.21453 8017 ft 280 kts 133°
2026-05-07 19:17 54.69156 -6.19469 9049 ft 276 kts 160°
2026-05-07 19:17 54.67355 -6.18278 10091 ft 279 kts 163°
2026-05-07 19:17 54.65446 -6.17094 10589 ft 302 kts 164°
2026-05-07 19:17 54.63430 -6.15857 11365 ft 312 kts 163°
2026-05-07 19:18 54.61367 -6.14584 12272 ft 318 kts 163°
2026-05-07 19:18 54.59305 -6.13307 13182 ft 322 kts 164°
2026-05-07 19:18 54.57209 -6.12000 14048 ft 327 kts 164°
2026-05-07 19:18 54.55107 -6.10397 14860 ft 335 kts 154°
2026-05-07 19:19 54.53214 -6.07961 15681 ft 345 kts 140°
2026-05-07 19:19 54.51661 -6.04763 16523 ft 354 kts 127°
2026-05-07 19:19 54.50543 -6.00929 17334 ft 363 kts 116°
2026-05-07 19:19 54.49581 -5.96892 18137 ft 367 kts 116°
2026-05-07 19:20 54.48600 -5.92815 18830 ft 370 kts 117°
2026-05-07 19:20 54.47606 -5.88713 19537 ft 374 kts 117°
2026-05-07 19:20 54.46598 -5.84570 20230 ft 378 kts 117°
2026-05-07 19:20 54.45576 -5.80384 20921 ft 381 kts 117°
2026-05-07 19:21 54.44544 -5.76168 21619 ft 385 kts 117°
2026-05-07 19:21 54.43496 -5.71906 22307 ft 389 kts 117°
2026-05-07 19:21 54.42436 -5.67604 22997 ft 393 kts 117°
2026-05-07 19:21 54.41365 -5.63256 23652 ft 397 kts 117°
2026-05-07 19:22 54.40274 -5.58876 24226 ft 400 kts 119°
2026-05-07 19:22 54.38904 -5.54738 24811 ft 398 kts 128°
2026-05-07 19:22 54.37319 -5.50823 25394 ft 401 kts 129°
2026-05-07 19:22 54.35721 -5.46888 25964 ft 404 kts 129°
2026-05-07 19:23 54.34110 -5.42934 26529 ft 406 kts 129°
2026-05-07 19:23 54.32486 -5.38945 27076 ft 409 kts 129°
2026-05-07 19:23 54.30856 -5.34943 27617 ft 412 kts 129°
2026-05-07 19:23 54.29209 -5.30907 28163 ft 415 kts 129°
2026-05-07 19:24 54.27544 -5.26853 28687 ft 417 kts 130°
2026-05-07 19:24 54.25788 -5.22878 29211 ft 419 kts 132°
2026-05-07 19:24 54.23950 -5.18997 29723 ft 422 kts 133°
2026-05-07 19:24 54.22052 -5.15150 30195 ft 424 kts 134°
2026-05-07 19:25 54.20129 -5.11305 30621 ft 427 kts 134°
2026-05-07 19:25 54.18198 -5.07431 31039 ft 430 kts 134°
2026-05-07 19:25 54.16272 -5.03522 31453 ft 432 kts 133°
2026-05-07 19:25 54.14354 -4.99578 32011 ft 431 kts 133°
2026-05-07 19:26 54.12453 -4.95634 32592 ft 430 kts 133°
2026-05-07 19:26 54.10554 -4.91688 32928 ft 430 kts 133°
2026-05-07 19:26 54.06853 -4.84011 32996 ft 405 kts 133°
2026-05-07 19:27 54.03309 -4.76671 33002 ft 401 kts 132°
2026-05-07 19:27 53.99909 -4.69131 33003 ft 402 kts 130°
2026-05-07 19:28 53.96568 -4.61495 33001 ft 403 kts 130°
2026-05-07 19:28 53.93207 -4.53894 32997 ft 402 kts 131°
2026-05-07 19:29 53.89814 -4.46342 32990 ft 402 kts 131°
2026-05-07 19:29 53.86424 -4.38801 32980 ft 402 kts 130°
2026-05-07 19:30 53.83199 -4.31051 32975 ft 403 kts 128°
2026-05-07 19:30 53.80055 -4.23184 32978 ft 403 kts 128°
2026-05-07 19:31 53.76888 -4.15348 32978 ft 403 kts 128°
2026-05-07 19:31 53.73686 -4.07551 32980 ft 404 kts 128°
2026-05-07 19:32 53.70464 -3.99791 32985 ft 404 kts 128°
2026-05-07 19:32 53.67238 -3.92034 32979 ft 404 kts 128°
2026-05-07 19:33 53.64011 -3.84270 32983 ft 404 kts 128°
2026-05-07 19:33 53.60776 -3.76524 32984 ft 404 kts 128°
2026-05-07 19:34 53.57553 -3.68835 32983 ft 404 kts 128°
2026-05-07 19:34 53.54307 -3.61105 32988 ft 405 kts 128°
2026-05-07 19:35 53.51052 -3.53382 32989 ft 405 kts 128°
2026-05-07 19:35 53.47791 -3.45668 32986 ft 405 kts 127°
2026-05-07 19:36 53.45254 -3.37157 32995 ft 410 kts 115°
2026-05-07 19:36 53.43020 -3.28356 32994 ft 410 kts 116°
2026-05-07 19:37 53.40762 -3.19603 32999 ft 410 kts 119°
2026-05-07 19:37 53.40266 -3.18052 32999 ft 406 kts 125°
2026-05-07 19:38 53.38523 -3.14340 32795 ft 403 kts 135°
2026-05-07 19:38 53.36557 -3.10986 32982 ft 402 kts 141°
2026-05-07 19:38 53.32132 -3.05299 33030 ft 401 kts 148°
2026-05-07 19:39 53.27536 -3.00023 33031 ft 400 kts 149°
2026-05-07 19:39 53.22910 -2.94859 33026 ft 400 kts 149°
2026-05-07 19:40 53.18295 -2.89680 33023 ft 400 kts 149°
2026-05-07 19:40 53.13693 -2.84483 33018 ft 400 kts 149°
2026-05-07 19:41 53.09082 -2.79286 33016 ft 400 kts 149°
2026-05-07 19:41 53.04461 -2.74094 33014 ft 401 kts 149°
2026-05-07 19:42 52.99840 -2.68911 33013 ft 401 kts 149°
2026-05-07 19:42 52.95218 -2.63730 33011 ft 401 kts 149°
2026-05-07 19:43 52.90597 -2.58565 33010 ft 401 kts 149°
2026-05-07 19:43 52.85959 -2.53418 33008 ft 401 kts 149°
2026-05-07 19:44 52.81320 -2.48287 33011 ft 401 kts 149°
2026-05-07 19:44 52.76675 -2.43146 32825 ft 403 kts 149°
2026-05-07 19:45 52.74351 -2.40575 32555 ft 403 kts 149°
2026-05-07 19:45 52.72019 -2.38001 32288 ft 403 kts 149°
2026-05-07 19:45 52.69685 -2.35432 32028 ft 403 kts 149°
2026-05-07 19:45 52.67355 -2.32871 31766 ft 402 kts 149°
2026-05-07 19:46 52.65041 -2.30321 31458 ft 398 kts 149°
2026-05-07 19:46 52.62748 -2.27797 31013 ft 395 kts 149°
2026-05-07 19:46 52.60472 -2.25298 30561 ft 392 kts 149°
2026-05-07 19:46 52.58208 -2.22820 30110 ft 390 kts 149°
2026-05-07 19:47 52.55957 -2.20365 29630 ft 387 kts 149°
2026-05-07 19:47 52.53727 -2.17939 29217 ft 383 kts 149°
2026-05-07 19:47 52.52258 -2.16343 28932 ft 381 kts 149°
2026-05-07 19:47 52.50059 -2.13950 28524 ft 377 kts 149°
2026-05-07 19:48 52.47885 -2.11580 28118 ft 374 kts 149°
2026-05-07 19:48 52.45728 -2.09235 27712 ft 370 kts 149°
2026-05-07 19:48 52.43584 -2.06911 27299 ft 367 kts 149°
2026-05-07 19:48 52.41462 -2.04615 26885 ft 364 kts 149°
2026-05-07 19:49 52.39358 -2.02340 26456 ft 361 kts 149°
2026-05-07 19:49 52.37269 -2.00076 26032 ft 358 kts 149°
2026-05-07 19:49 52.35199 -1.97833 25588 ft 356 kts 149°
2026-05-07 19:49 52.33140 -1.95606 25148 ft 354 kts 149°
2026-05-07 19:50 52.31089 -1.93398 24705 ft 352 kts 149°
2026-05-07 19:50 52.29046 -1.91199 24232 ft 351 kts 149°
2026-05-07 19:50 52.27011 -1.89010 23785 ft 350 kts 149°
2026-05-07 19:50 52.24978 -1.86828 23271 ft 349 kts 149°
2026-05-07 19:51 52.22959 -1.84666 22813 ft 346 kts 149°
2026-05-07 19:51 52.20955 -1.82522 22371 ft 343 kts 149°
2026-05-07 19:51 52.18964 -1.80390 21928 ft 341 kts 149°
2026-05-07 19:51 52.16989 -1.78277 21510 ft 339 kts 149°
2026-05-07 19:52 52.15029 -1.76182 21081 ft 337 kts 149°
2026-05-07 19:52 52.13073 -1.74094 20654 ft 335 kts 149°
2026-05-07 19:52 52.11127 -1.72018 20226 ft 334 kts 149°
2026-05-07 19:52 52.09193 -1.69958 19866 ft 332 kts 149°
2026-05-07 19:53 52.07263 -1.67903 19600 ft 331 kts 149°
2026-05-07 19:53 52.05342 -1.65863 19324 ft 329 kts 149°
2026-05-07 19:53 52.03422 -1.63829 19028 ft 328 kts 149°
2026-05-07 19:53 52.01518 -1.61812 18739 ft 326 kts 149°
2026-05-07 19:54 51.99620 -1.59800 18432 ft 325 kts 149°
2026-05-07 19:54 51.97757 -1.57826 18127 ft 324 kts 149°
2026-05-07 19:54 51.95875 -1.55835 17837 ft 322 kts 149°
2026-05-07 19:54 51.93998 -1.53852 17555 ft 321 kts 149°
2026-05-07 19:55 51.92133 -1.51887 17273 ft 319 kts 149°
2026-05-07 19:55 51.90275 -1.49928 16991 ft 318 kts 149°
2026-05-07 19:55 51.88428 -1.47983 16713 ft 316 kts 149°
2026-05-07 19:55 51.86584 -1.46043 16436 ft 315 kts 149°
2026-05-07 19:56 51.84750 -1.44117 16157 ft 314 kts 149°
2026-05-07 19:56 51.82927 -1.42201 15886 ft 312 kts 149°
2026-05-07 19:56 51.81106 -1.40288 15643 ft 311 kts 149°
2026-05-07 19:56 51.79297 -1.38391 15375 ft 310 kts 149°
2026-05-07 19:57 51.77495 -1.36503 15128 ft 308 kts 149°
2026-05-07 19:57 51.75696 -1.34621 15041 ft 307 kts 149°
2026-05-07 19:57 51.73903 -1.32748 15055 ft 308 kts 149°
2026-05-07 19:57 51.72104 -1.30875 15055 ft 308 kts 149°
2026-05-07 19:58 51.70303 -1.29003 15055 ft 308 kts 149°
2026-05-07 19:58 51.68507 -1.27139 15052 ft 308 kts 149°
2026-05-07 19:58 51.66703 -1.25264 15055 ft 308 kts 149°
2026-05-07 19:58 51.64907 -1.23397 15057 ft 308 kts 149°
2026-05-07 19:59 51.63108 -1.21525 15058 ft 308 kts 149°
2026-05-07 19:59 51.61309 -1.19653 15054 ft 308 kts 149°
2026-05-07 19:59 51.59510 -1.17786 15057 ft 308 kts 149°
2026-05-07 19:59 51.57707 -1.15919 15056 ft 308 kts 149°
2026-05-07 20:00 51.55907 -1.14057 15057 ft 308 kts 149°
2026-05-07 20:00 51.54129 -1.12219 15057 ft 307 kts 149°
2026-05-07 20:00 51.52327 -1.10360 15058 ft 307 kts 149°
2026-05-07 20:00 51.50533 -1.08510 15058 ft 307 kts 149°
2026-05-07 20:01 51.48734 -1.06653 15053 ft 307 kts 149°
2026-05-07 20:01 51.46936 -1.04799 15053 ft 307 kts 149°
2026-05-07 20:01 51.45138 -1.02948 15054 ft 307 kts 149°
2026-05-07 20:01 51.43338 -1.01102 15057 ft 307 kts 149°
2026-05-07 20:02 51.41541 -0.99258 15055 ft 307 kts 149°
2026-05-07 20:02 51.39743 -0.97409 15057 ft 307 kts 149°
2026-05-07 20:02 51.37945 -0.95563 15052 ft 307 kts 149°
2026-05-07 20:02 51.36145 -0.93721 15056 ft 307 kts 149°
2026-05-07 20:03 51.34343 -0.91882 15057 ft 307 kts 149°
2026-05-07 20:03 51.32543 -0.90044 15085 ft 307 kts 149°
2026-05-07 20:03 51.30746 -0.88206 15088 ft 307 kts 149°
2026-05-07 20:03 51.28946 -0.86364 15084 ft 307 kts 149°
2026-05-07 20:04 51.27148 -0.84528 15082 ft 307 kts 149°
2026-05-07 20:04 51.25346 -0.82693 15083 ft 307 kts 149°
2026-05-07 20:04 51.23544 -0.80859 15084 ft 307 kts 149°
2026-05-07 20:04 51.21740 -0.79026 15082 ft 307 kts 149°
2026-05-07 20:05 51.19935 -0.77197 15082 ft 307 kts 149°
2026-05-07 20:05 51.18130 -0.75371 15084 ft 307 kts 149°
2026-05-07 20:05 51.16324 -0.73544 15081 ft 307 kts 149°
2026-05-07 20:05 51.14517 -0.71720 15079 ft 307 kts 149°
2026-05-07 20:06 51.12711 -0.69897 15077 ft 307 kts 149°
2026-05-07 20:06 51.10905 -0.68073 15078 ft 307 kts 149°
2026-05-07 20:06 51.09094 -0.66245 14939 ft 309 kts 149°
2026-05-07 20:06 51.07249 -0.64382 14371 ft 316 kts 149°
2026-05-07 20:07 51.05591 -0.62173 14236 ft 309 kts 133°
2026-05-07 20:07 51.04543 -0.59808 14018 ft 307 kts 120°
2026-05-07 20:07 51.03583 -0.56786 13693 ft 306 kts 118°
2026-05-07 20:07 51.02653 -0.53796 13532 ft 298 kts 118°
2026-05-07 20:08 51.01750 -0.50887 13384 ft 289 kts 118°
2026-05-07 20:08 51.00873 -0.48064 13252 ft 281 kts 118°
2026-05-07 20:08 51.00019 -0.45320 13104 ft 273 kts 118°
2026-05-07 20:08 50.99184 -0.42647 12952 ft 267 kts 118°
2026-05-07 20:09 50.98362 -0.40035 12764 ft 262 kts 118°
2026-05-07 20:09 50.97555 -0.37471 12575 ft 257 kts 118°
2026-05-07 20:09 50.96765 -0.34958 12396 ft 252 kts 118°
2026-05-07 20:10 50.95229 -0.30087 12027 ft 242 kts 118°
2026-05-07 20:10 50.94479 -0.27722 11848 ft 239 kts 119°
2026-05-07 20:10 50.93732 -0.25373 11667 ft 238 kts 119°
2026-05-07 20:10 50.92986 -0.23031 11490 ft 238 kts 118°
2026-05-07 20:11 50.92244 -0.20695 11312 ft 237 kts 118°
2026-05-07 20:11 50.91501 -0.18363 11158 ft 237 kts 118°
2026-05-07 20:11 50.90757 -0.16034 11048 ft 237 kts 118°
2026-05-07 20:11 50.90015 -0.13706 10897 ft 237 kts 118°
2026-05-07 20:12 50.89273 -0.11379 10751 ft 236 kts 118°
2026-05-07 20:12 50.88547 -0.09048 10603 ft 236 kts 114°
2026-05-07 20:12 50.88226 -0.06505 10457 ft 238 kts 89°
2026-05-07 20:12 50.88560 -0.03961 10313 ft 237 kts 65°
2026-05-07 20:13 50.89474 -0.01814 10168 ft 235 kts 42°
2026-05-07 20:13 50.90819 -0.00383 9999 ft 232 kts 19°
2026-05-07 20:13 50.92379 0.00136 9697 ft 229 kts 357°
2026-05-07 20:13 50.93924 -0.00294 9331 ft 225 kts 335°
2026-05-07 20:14 50.95236 -0.01573 9014 ft 220 kts 314°
2026-05-07 20:14 50.96151 -0.03479 8729 ft 216 kts 294°
2026-05-07 20:14 50.96614 -0.05730 8464 ft 215 kts 282°
2026-05-07 20:14 50.96943 -0.08041 8209 ft 215 kts 281°
2026-05-07 20:15 50.97259 -0.10352 8075 ft 215 kts 281°
2026-05-07 20:15 50.97577 -0.12664 8062 ft 215 kts 281°
2026-05-07 20:15 50.97796 -0.15022 7971 ft 225 kts 273°
2026-05-07 20:15 50.97872 -0.17592 7703 ft 237 kts 271°
2026-05-07 20:16 50.97926 -0.20217 7474 ft 239 kts 271°
2026-05-07 20:16 50.97975 -0.22852 7247 ft 239 kts 271°
2026-05-07 20:16 50.98022 -0.25483 7021 ft 238 kts 271°
2026-05-07 20:16 50.98067 -0.28111 6745 ft 238 kts 271°
2026-05-07 20:17 50.98108 -0.30739 6381 ft 238 kts 271°
2026-05-07 20:17 50.98146 -0.33356 5993 ft 238 kts 271°
2026-05-07 20:17 50.98183 -0.35983 5605 ft 238 kts 271°
2026-05-07 20:17 50.98220 -0.38609 5225 ft 238 kts 271°
2026-05-07 20:18 50.98258 -0.41227 4861 ft 238 kts 271°
2026-05-07 20:18 50.98449 -0.43780 4659 ft 229 kts 291°
2026-05-07 20:18 50.99359 -0.45727 4527 ft 217 kts 326°
2026-05-07 20:18 51.00670 -0.46760 4384 ft 207 kts 340°
2026-05-07 20:19 51.01996 -0.47566 4229 ft 201 kts 341°
2026-05-07 20:19 51.03286 -0.48332 4107 ft 195 kts 341°
2026-05-07 20:19 51.04553 -0.49085 3983 ft 194 kts 341°
2026-05-07 20:19 51.05811 -0.49835 3838 ft 193 kts 341°
2026-05-07 20:20 51.07069 -0.50584 3682 ft 193 kts 342°
2026-05-07 20:20 51.08374 -0.50770 3528 ft 188 kts 13°
2026-05-07 20:20 51.09575 -0.50008 3467 ft 186 kts 36°
2026-05-07 20:20 51.10478 -0.48584 3382 ft 181 kts 59°
2026-05-07 20:21 51.10937 -0.46823 3341 ft 168 kts 78°
2026-05-07 20:21 51.11187 -0.45039 3267 ft 163 kts 78°
2026-05-07 20:21 51.11433 -0.43287 3099 ft 162 kts 78°
2026-05-07 20:21 51.11677 -0.41549 2903 ft 161 kts 79°
2026-05-07 20:22 51.11920 -0.39815 2694 ft 160 kts 79°
2026-05-07 20:22 51.12163 -0.38086 2477 ft 160 kts 79°
2026-05-07 20:22 51.12404 -0.36365 2262 ft 160 kts 79°
2026-05-07 20:22 51.12645 -0.34635 2046 ft 160 kts 79°
2026-05-07 20:23 51.12886 -0.32915 1833 ft 159 kts 79°
2026-05-07 20:23 51.13125 -0.31195 1607 ft 159 kts 79°
2026-05-07 20:23 51.13363 -0.29487 1392 ft 156 kts 79°
2026-05-07 20:23 51.13592 -0.27849 1170 ft 147 kts 79°
2026-05-07 20:24 51.13805 -0.26318 965 ft 139 kts 79°
2026-05-07 20:24 51.14009 -0.24846 773 ft 133 kts 78°
2026-05-07 20:24 51.14212 -0.23424 588 ft 131 kts 78°
2026-05-07 20:24 51.14407 -0.22023 414 ft 129 kts 78°
2026-05-07 20:25 51.14596 -0.20629 239 ft 128 kts 78°
2026-05-07 20:25 51.14770 -0.19349 215 ft 100 kts 78°
2026-05-07 20:25 51.14892 -0.18623 208 ft 44 kts 59°
2026-05-07 20:25 51.15035 -0.18331 208 ft 24 kts 50°
2026-05-07 20:26 51.15090 -0.18223 205 ft 6 kts 49°
2026-05-07 20:26 51.15093 -0.18219 205 ft 0 kts 48°
2026-05-07 20:26 51.15100 -0.18208 205 ft 3 kts 42°
2026-05-07 20:27 51.15119 -0.18195 209 ft 5 kts 11°
2026-05-07 20:27 51.15152 -0.18200 205 ft 10 kts 348°
2026-05-07 20:27 51.15184 -0.18294 207 ft 11 kts 261°
2026-05-07 20:27 51.15164 -0.18467 208 ft 13 kts 261°
2026-05-07 20:28 51.15154 -0.18562 208 ft 13 kts 257°
2026-05-07 20:28 51.15132 -0.18728 205 ft 17 kts 258°
2026-05-07 20:28 51.15107 -0.18912 207 ft 17 kts 257°
2026-05-07 20:28 51.15081 -0.19102 210 ft 18 kts 258°
2026-05-07 20:29 51.15054 -0.19299 210 ft 19 kts 258°
2026-05-07 20:29 51.15027 -0.19491 214 ft 14 kts 258°
2026-05-07 20:29 51.15088 -0.19579 205 ft 14 kts 346°
2026-05-07 20:29 51.15175 -0.19609 210 ft 12 kts 348°
2026-05-07 20:30 51.15247 -0.19634 210 ft 9 kts 347°
2026-05-07 20:30 51.15299 -0.19652 209 ft 6 kts 348°
2026-05-07 20:30 51.15330 -0.19629 207 ft 5 kts 61°
2026-05-07 20:30 51.15338 -0.19578 207 ft 4 kts 77°
2026-05-07 20:31 51.15343 -0.19547 205 ft 2 kts 77°
2026-05-07 20:31 51.15345 -0.19531 211 ft 2 kts 78°
2026-05-07 20:31 51.15347 -0.19519 214 ft 1 kts 78°
2026-05-07 20:31 51.15347 -0.19517 214 ft 0 kts 78°